Guymon, OK

3:17 PM CDT on March 23, 2017 (GMT -0500)
Guymon Municipal

Weather History for KGUY - February, 2014

Change the Weather History Date:

Sunday, February 9, 2014

  Actual Average Record
Temperature  
Mean Temperature 24 °F 38 °F  
Max Temperature 29 °F 52 °F 79 °F (2000)
Min Temperature 19 °F 23 °F -3 °F (2011)
Degree Days  
Heating Degree Days 41 27  
Month to date heating degree days 392 251  
Since 1 July heating degree days 3108 2979  
Cooling Degree Days 0 0  
Month to date cooling degree days 0 0  
Year to date cooling degree days 0 0  
Moisture  
Dew Point 19 °F    
Average Humidity 87    
Maximum Humidity 96    
Minimum Humidity 77    
Precipitation  
Precipitation T in 0.02 in 0.11 in (2009)
Month to date precipitation 0.15 0.14  
Year to date precipitation 0.33 0.54  
Snow  
Snow T in - - ()
Month to date snowfall 2.4  
Since 1 July snowfall 12.6  
Snow Depth T in    
Sea Level Pressure  
Sea Level Pressure 30.10 in    
Wind  
Wind Speed 10 mph (NE)    
Max Wind Speed 21 mph    
Max Gust Speed 26 mph    
Visibility 2 miles    
Events Fog , Snow    
T = Trace of Precipitation, MM = Missing Value Source: NWS Daily Summary

Daily Weather History Graph

Daily Weather History Graph

Search for Another Location

Airport or City:

Trip Planner

Search our weather history database for the weather conditions in past years. The results will help you decide how hot, cold, wet, or windy it might be!

Date:

Astronomy

Feb. 09, 2014 Rise Set
Actual Time 7:40 AM CST 6:20 PM CST
Civil Twilight 7:13 AM CST 6:47 PM CST
Nautical Twilight 6:43 AM CST 7:17 PM CST
Astronomical Twilight 6:13 AM CST 7:47 PM CST
Moon 2:04 PM CST (2/9) 3:44 AM CST (2/9)
Length of Visible Light 11h 33m
Length of Day
10h 39m
Waxing Gibbous, 77% of the Moon is Illuminated
Feb 9
Waxing Gibbous
Feb 14
Full
Feb 22
Last Quarter
Mar 1
New
Mar 8
First Quarter

Hourly Weather History & Observations

Time (CST) Temp. Windchill Dew Point Humidity Pressure Visibility Wind Dir Wind Speed Gust Speed Precip Events Conditions
12:53 AM 26.1 °F - 23.0 °F 88% 29.99 in 5.0 mi Calm Calm - N/A   Clear
1:53 AM 24.1 °F 14.4 °F 21.0 °F 88% 30.00 in 4.0 mi ENE 9.2 mph - N/A   Partly Cloudy
2:07 AM 23.0 °F 11.7 °F 19.9 °F 88% 29.99 in 3.0 mi ENE 11.5 mph - N/A   Mostly Cloudy
2:11 AM 23.0 °F 11.7 °F 19.9 °F 88% 30.01 in 1.8 mi East 11.5 mph - N/A   Mostly Cloudy
2:22 AM 21.9 °F 11.7 °F 19.9 °F 92% 30.02 in 0.5 mi ENE 9.2 mph - N/A Fog Light Freezing Fog
2:30 AM 21.9 °F 8.7 °F 19.9 °F 92% 30.03 in 0.2 mi NNE 15.0 mph - N/A Fog Light Freezing Fog
2:53 AM 21.9 °F 8.7 °F 19.9 °F 92% 30.03 in 0.5 mi NE 15.0 mph 20.7 mph 0.00 in Fog Light Freezing Fog
3:32 AM 23.0 °F 10.6 °F 21.0 °F 92% 30.02 in 0.2 mi NE 13.8 mph - N/A Fog Light Freezing Fog
3:53 AM 23.0 °F 10.1 °F 21.0 °F 92% 30.01 in 0.5 mi ENE 15.0 mph 20.7 mph N/A Fog Light Freezing Fog
4:05 AM 24.1 °F 12.5 °F 21.0 °F 88% 29.99 in 0.2 mi ENE 12.7 mph - 0.00 in Fog , Snow Light Snow
4:13 AM 23.0 °F 11.1 °F 21.0 °F 92% 30.00 in 0.5 mi NE 12.7 mph - 0.00 in Fog , Snow Light Snow
4:22 AM 23.0 °F 11.7 °F 21.0 °F 92% 30.01 in 0.2 mi NE 11.5 mph - 0.00 in Fog , Snow Light Snow
4:29 AM 23.0 °F 8.7 °F 19.9 °F 88% 30.01 in 0.5 mi NE 18.4 mph - 0.00 in Fog , Snow Light Snow
4:39 AM 23.0 °F 9.2 °F 19.9 °F 88% 30.00 in 0.2 mi NE 17.3 mph - 0.00 in Fog Light Freezing Fog
4:53 AM 21.9 °F 8.2 °F 19.0 °F 89% 30.03 in 0.2 mi NNE 16.1 mph - 0.00 in Fog Light Freezing Fog
5:04 AM 21.0 °F 7.1 °F 18.0 °F 88% 30.03 in 0.5 mi NNE 16.1 mph - N/A Fog Light Freezing Fog
5:53 AM 21.9 °F 9.8 °F 19.0 °F 89% 30.05 in 0.5 mi NE 12.7 mph - N/A Fog Light Freezing Fog
6:50 AM 21.2 °F 11.7 °F 19.4 °F 93% 30.06 in 0.2 mi NNE 8.1 mph - N/A Fog Light Freezing Fog
6:53 AM 23.0 °F 13.9 °F 19.0 °F 85% 30.09 in 0.2 mi NE 8.1 mph - N/A Fog Light Freezing Fog
7:00 AM 23.0 °F 13.9 °F 19.0 °F 85% 30.07 in 0.5 mi NE 8.1 mph - N/A Fog Light Freezing Fog
7:53 AM 24.1 °F 16.0 °F 19.9 °F 84% 30.14 in 0.8 mi NE 6.9 mph - N/A   Mist
8:39 AM 24.1 °F 13.1 °F 19.9 °F 84% 30.10 in 1.0 mi NE 11.5 mph - N/A   Overcast
8:53 AM 24.1 °F 13.7 °F 19.9 °F 84% 30.14 in 1.2 mi NE 10.4 mph - N/A   Overcast
9:05 AM 24.1 °F 15.2 °F 19.9 °F 84% 30.10 in 3.0 mi NE 8.1 mph - N/A   Overcast
9:20 AM 24.1 °F 13.1 °F 19.9 °F 84% 30.10 in 5.0 mi NE 11.5 mph - N/A   Overcast
9:35 AM 24.1 °F 14.4 °F 19.9 °F 84% 30.11 in 2.5 mi ENE 9.2 mph - N/A   Overcast
9:42 AM 24.1 °F 14.4 °F 19.9 °F 84% 30.11 in 3.0 mi ENE 9.2 mph - N/A   Overcast
9:50 AM 24.8 °F 16.1 °F 19.4 °F 80% 30.11 in 2.5 mi NE 8.1 mph - N/A   Overcast
9:53 AM 24.1 °F 12.5 °F 19.9 °F 84% 30.17 in 2.0 mi ENE 12.7 mph - N/A   Overcast
10:09 AM 25.0 °F 15.5 °F 19.9 °F 81% 30.12 in 4.0 mi NE 9.2 mph - N/A   Haze
10:29 AM 25.0 °F 16.3 °F 19.9 °F 81% 30.14 in 2.0 mi NE 8.1 mph - 0.00 in Snow Light Snow
10:39 AM 25.0 °F 16.3 °F 19.9 °F 81% 30.13 in 4.0 mi NE 8.1 mph - 0.00 in   Haze
10:53 AM 25.0 °F 15.5 °F 19.9 °F 81% 30.18 in 3.0 mi ENE 9.2 mph - 0.00 in   Haze
11:16 AM 25.0 °F 15.5 °F 19.9 °F 81% 30.15 in 7.0 mi NE 9.2 mph - N/A   Overcast
11:53 AM 25.0 °F 15.5 °F 19.9 °F 81% 30.19 in 6.0 mi ENE 9.2 mph - N/A   Haze
12:53 PM 25.0 °F 15.5 °F 19.9 °F 81% 30.17 in 8.0 mi NNE 9.2 mph - N/A   Overcast
1:30 PM 24.1 °F 15.2 °F 19.9 °F 84% 30.11 in 4.0 mi NE 8.1 mph - N/A   Overcast
1:51 PM 24.8 °F 15.3 °F 19.4 °F 80% 30.10 in 1.8 mi NE 9.2 mph - N/A   Haze
1:53 PM 24.1 °F 13.7 °F 19.0 °F 81% 30.17 in 1.8 mi NE 10.4 mph - N/A   Haze
2:53 PM 24.1 °F 13.7 °F 19.0 °F 81% 30.16 in 1.2 mi NE 10.4 mph - N/A   Haze
3:29 PM 23.0 °F 13.1 °F 19.0 °F 85% 30.09 in 2.0 mi ENE 9.2 mph - N/A   Overcast
3:53 PM 23.0 °F 13.9 °F 19.0 °F 85% 30.14 in 3.0 mi ENE 8.1 mph - N/A   Overcast
4:01 PM 23.0 °F 13.9 °F 19.0 °F 85% 30.07 in 2.0 mi NE 8.1 mph - N/A   Overcast
4:22 PM 23.0 °F 12.4 °F 18.0 °F 81% 30.06 in 3.0 mi NE 10.4 mph - 0.00 in   Haze
4:40 PM 23.0 °F 13.9 °F 18.0 °F 81% 30.07 in 1.8 mi NE 8.1 mph - 0.00 in   Haze
4:50 PM 23.0 °F 13.1 °F 17.6 °F 80% 30.06 in 0.5 mi East 9.2 mph - 0.00 in Snow Snow
4:53 PM 23.0 °F 12.4 °F 18.0 °F 81% 30.14 in 0.8 mi ENE 10.4 mph - 0.00 in Snow Light Snow
5:00 PM 23.0 °F 13.1 °F 18.0 °F 81% 30.07 in 1.8 mi ENE 9.2 mph - 0.00 in   Haze
5:02 PM 23.0 °F 12.4 °F 18.0 °F 81% 30.07 in 2.5 mi ENE 10.4 mph - 0.00 in   Haze
5:09 PM 23.0 °F 13.9 °F 18.0 °F 81% 30.08 in 3.0 mi ENE 8.1 mph - 0.00 in   Haze
5:33 PM 23.0 °F 12.4 °F 18.0 °F 81% 30.09 in 6.0 mi ENE 10.4 mph - 0.00 in   Haze
5:53 PM 21.9 °F 11.0 °F 18.0 °F 85% 30.18 in 4.0 mi ENE 10.4 mph - 0.00 in   Overcast
6:53 PM 21.9 °F 11.7 °F 17.1 °F 82% 30.20 in 4.0 mi ENE 9.2 mph - N/A   Haze
7:29 PM 21.0 °F 9.3 °F 17.1 °F 85% 30.14 in 2.5 mi NE 11.5 mph - N/A   Overcast
7:37 PM 21.0 °F 9.3 °F 17.1 °F 85% 30.14 in 3.0 mi ENE 11.5 mph - N/A   Overcast
7:53 PM 21.0 °F 9.9 °F 16.0 °F 81% 30.21 in 4.0 mi NE 10.4 mph - N/A   Haze
8:04 PM 21.0 °F 9.3 °F 16.0 °F 81% 30.15 in 5.0 mi NE 11.5 mph - N/A   Haze
8:53 PM 19.9 °F 8.6 °F 16.0 °F 85% 30.25 in 4.0 mi ENE 10.4 mph - N/A   Overcast
9:37 PM 19.9 °F 7.3 °F 15.1 °F 81% 30.20 in 4.0 mi NE 12.7 mph - N/A   Haze
9:53 PM 19.9 °F 9.3 °F 15.1 °F 81% 30.29 in 3.0 mi NE 9.2 mph - N/A   Haze
10:53 PM 19.0 °F 8.2 °F 14.0 °F 81% 30.32 in 4.0 mi NNE 9.2 mph - 0.00 in   Haze
11:53 PM 19.0 °F 9.0 °F 14.0 °F 81% 30.30 in 6.0 mi NE 8.1 mph - N/A   Haze